TimeCST,TemperatureF,Dew PointF,Humidity,Sea Level PressureIn,VisibilityMPH,Wind Direction,Wind SpeedMPH,Gust SpeedMPH,PrecipitationIn,Events,Conditions,WindDirDegrees,DateUTC
12:15 AM,-4.0,-9.4,78,30.27,10.0,NNW,16.1,-,N/A,,Clear,340,2012-12-09 06:15:00
12:35 AM,-4.0,-9.4,78,30.27,10.0,North,15.0,-,N/A,,Clear,350,2012-12-09 06:35:00
12:55 AM,-4.0,-9.4,78,30.27,9.0,North,17.3,-,N/A,,Clear,350,2012-12-09 06:55:00
1:15 AM,-2.2,-9.4,71,30.28,8.0,North,13.8,19.6,N/A,,Clear,350,2012-12-09 07:15:00
1:35 AM,-4.0,-9.4,78,30.28,5.0,North,13.8,19.6,N/A,,Haze,350,2012-12-09 07:35:00
1:55 AM,-4.0,-9.4,78,30.30,5.0,NNW,15.0,21.9,N/A,,Haze,340,2012-12-09 07:55:00
2:15 AM,-4.0,-9.4,78,30.30,4.0,NNW,16.1,-,N/A,,Haze,340,2012-12-09 08:15:00
2:35 AM,-4.0,-9.4,78,30.31,7.0,North,13.8,-,N/A,,Partly Cloudy,350,2012-12-09 08:35:00
2:55 AM,-4.0,-9.4,78,30.31,8.0,NNW,15.0,20.7,N/A,,Clear,340,2012-12-09 08:55:00
3:15 AM,-4.0,-9.4,78,30.31,9.0,NNW,15.0,-,N/A,,Clear,340,2012-12-09 09:15:00
3:35 AM,-4.0,-9.4,78,30.31,5.0,NNW,15.0,-,N/A,,Haze,340,2012-12-09 09:35:00
3:55 AM,-4.0,-9.4,78,30.32,5.0,NNW,13.8,-,N/A,,Haze,340,2012-12-09 09:55:00
4:15 AM,-4.0,-9.4,78,30.32,5.0,North,12.7,-,N/A,,Haze,350,2012-12-09 10:15:00
4:35 AM,-4.0,-9.4,78,30.33,3.0,NNW,13.8,-,N/A,,Haze,340,2012-12-09 10:35:00
4:55 AM,-2.2,-7.6,78,30.34,2.5,North,13.8,-,N/A,,Haze,350,2012-12-09 10:55:00
5:15 AM,-0.4,-4.0,85,30.35,1.8,North,18.4,23.0,N/A,,Overcast,350,2012-12-09 11:15:00
5:35 AM,-2.2,-7.6,78,30.36,1.8,NNW,20.7,-,N/A,,Haze,340,2012-12-09 11:35:00
5:55 AM,-2.2,-7.6,78,30.37,2.0,North,16.1,20.7,N/A,,Haze,350,2012-12-09 11:55:00
6:15 AM,-0.4,-5.8,78,30.37,1.5,North,18.4,23.0,N/A,,Haze,350,2012-12-09 12:15:00
6:35 AM,-0.4,-4.0,85,30.37,1.5,North,16.1,-,N/A,,Overcast,350,2012-12-09 12:35:00
6:55 AM,-0.4,-4.0,85,30.38,1.0,NNW,20.7,27.6,N/A,Snow,Light Snow,340,2012-12-09 12:55:00
7:15 AM,-0.4,-4.0,85,30.39,2.0,North,16.1,21.9,N/A,,Haze,350,2012-12-09 13:15:00
7:35 AM,-2.2,-7.6,78,30.40,2.5,North,18.4,25.3,N/A,,Haze,350,2012-12-09 13:35:00
7:55 AM,-2.2,-7.6,78,30.40,8.0,North,16.1,27.6,N/A,,Overcast,350,2012-12-09 13:55:00
8:15 AM,-4.0,-9.4,78,30.40,10.0,NNW,16.1,-,N/A,,Mostly Cloudy,340,2012-12-09 14:15:00
8:35 AM,-4.0,-9.4,78,30.42,10.0,North,16.1,-,N/A,,Partly Cloudy,350,2012-12-09 14:35:00
8:55 AM,-4.0,-11.2,71,30.42,10.0,NNW,16.1,-,N/A,,Clear,340,2012-12-09 14:55:00
9:15 AM,-4.0,-11.2,71,30.42,10.0,North,15.0,20.7,N/A,,Clear,350,2012-12-09 15:15:00
9:35 AM,-4.0,-9.4,78,30.42,8.0,North,16.1,21.9,N/A,,Scattered Clouds,350,2012-12-09 15:35:00
9:55 AM,-4.0,-9.4,78,30.43,7.0,North,15.0,21.9,N/A,,Mostly Cloudy,350,2012-12-09 15:55:00
10:35 AM,-4.0,-9.4,78,30.43,10.0,North,15.0,-,N/A,,Overcast,350,2012-12-09 16:35:00
10:55 AM,-2.2,-9.4,71,30.43,10.0,North,16.1,21.9,N/A,,Overcast,350,2012-12-09 16:55:00
11:15 AM,-2.2,-9.4,71,30.42,9.0,North,15.0,19.6,N/A,,Overcast,350,2012-12-09 17:15:00
11:35 AM,-2.2,-11.2,66,30.42,10.0,North,17.3,23.0,N/A,,Mostly Cloudy,350,2012-12-09 17:35:00
11:55 AM,-2.2,-11.2,66,30.41,10.0,North,15.0,-,N/A,,Partly Cloudy,360,2012-12-09 17:55:00
12:15 PM,-2.2,-11.2,66,30.41,10.0,North,13.8,-,N/A,,Partly Cloudy,350,2012-12-09 18:15:00
12:35 PM,-2.2,-11.2,66,30.40,10.0,North,11.5,-,N/A,,Clear,360,2012-12-09 18:35:00
12:55 PM,-2.2,-11.2,66,30.40,10.0,NNW,12.7,18.4,N/A,,Clear,340,2012-12-09 18:55:00
1:15 PM,-2.2,-11.2,66,30.39,10.0,NNW,12.7,18.4,N/A,,Clear,340,2012-12-09 19:15:00
1:35 PM,-2.2,-11.2,66,30.39,10.0,NNW,13.8,-,N/A,,Clear,340,2012-12-09 19:35:00
1:55 PM,-2.2,-11.2,66,30.38,10.0,NNW,15.0,19.6,N/A,,Clear,340,2012-12-09 19:55:00
2:15 PM,-2.2,-11.2,66,30.37,10.0,NNW,16.1,-,N/A,,Clear,340,2012-12-09 20:15:00
2:35 PM,-2.2,-11.2,66,30.36,10.0,NNW,12.7,-,N/A,,Clear,340,2012-12-09 20:35:00
2:55 PM,-2.2,-11.2,66,30.36,10.0,NNW,13.8,-,N/A,,Clear,330,2012-12-09 20:55:00
3:15 PM,-2.2,-11.2,66,30.36,10.0,NNW,11.5,-,N/A,,Clear,330,2012-12-09 21:15:00
3:35 PM,-2.2,-9999,N/A,30.36,10.0,NNW,12.7,-,N/A,,Clear,330,2012-12-09 21:35:00
3:55 PM,-2.2,-9999,N/A,30.35,10.0,NNW,11.5,-,N/A,,Clear,330,2012-12-09 21:55:00
4:15 PM,-2.2,-11.2,66,30.35,3.0,NNW,10.4,-,N/A,,Haze,330,2012-12-09 22:15:00
4:35 PM,-4.0,-11.2,71,30.34,4.0,NW,9.2,-,N/A,,Haze,320,2012-12-09 22:35:00
4:55 PM,-4.0,-11.2,71,30.34,10.0,NW,8.1,-,N/A,,Clear,320,2012-12-09 22:55:00
5:15 PM,-4.0,-11.2,71,30.33,10.0,NNW,9.2,-,N/A,,Clear,330,2012-12-09 23:15:00
5:35 PM,-4.0,-11.2,71,30.33,10.0,NW,3.5,-,N/A,,Clear,320,2012-12-09 23:35:00
5:55 PM,-4.0,-11.2,71,30.32,10.0,NNW,5.8,-,N/A,,Clear,330,2012-12-09 23:55:00
6:15 PM,-7.6,-13.0,77,30.32,10.0,NW,4.6,-,N/A,,Clear,320,2012-12-10 00:15:00
6:35 PM,-7.6,-13.0,77,30.31,10.0,WNW,3.5,-,N/A,,Clear,300,2012-12-10 00:35:00
6:55 PM,-7.6,-13.0,77,30.30,10.0,Calm,Calm,-,N/A,,Clear,0,2012-12-10 00:55:00
7:15 PM,-9.4,-14.8,77,30.29,10.0,Calm,Calm,-,N/A,,Clear,0,2012-12-10 01:15:00
7:35 PM,-9.4,-14.8,77,30.27,10.0,Calm,Calm,-,N/A,,Clear,0,2012-12-10 01:35:00
7:55 PM,-9.4,-14.8,77,30.26,10.0,Calm,Calm,-,N/A,,Clear,0,2012-12-10 01:55:00
8:15 PM,-13.0,-18.4,77,30.26,10.0,South,4.6,-,N/A,,Clear,190,2012-12-10 02:15:00
8:35 PM,-13.0,-18.4,77,30.26,10.0,SSW,3.5,-,N/A,,Clear,200,2012-12-10 02:35:00
8:55 PM,-13.0,-20.2,70,30.24,10.0,South,3.5,-,N/A,,Clear,170,2012-12-10 02:55:00
9:15 PM,-13.0,-20.2,70,30.24,10.0,South,4.6,-,N/A,,Clear,190,2012-12-10 03:15:00
9:35 PM,-13.0,-20.2,70,30.23,10.0,South,3.5,-,N/A,,Clear,190,2012-12-10 03:35:00
10:15 PM,-11.2,-18.4,70,30.21,10.0,South,5.8,-,N/A,,Clear,170,2012-12-10 04:15:00
10:35 PM,-13.0,-18.4,77,30.19,10.0,SSE,5.8,-,N/A,,Clear,160,2012-12-10 04:35:00
10:55 PM,-11.2,-18.4,70,30.18,10.0,South,5.8,-,N/A,,Clear,170,2012-12-10 04:55:00
11:15 PM,-11.2,-18.4,70,30.17,10.0,South,8.1,-,N/A,,Clear,180,2012-12-10 05:15:00
11:35 PM,-11.2,-16.6,77,30.17,10.0,South,8.1,-,N/A,,Clear,190,2012-12-10 05:35:00
11:55 PM,-11.2,-16.6,77,30.16,10.0,South,9.2,-,N/A,,Clear,190,2012-12-10 05:55:00